Погода в Толмачах

Россия / Тверская область     57°25′47″N   35°41′20″E
темп.,
°C
ветер,
м/с
пор.,
м/с
влажн.,
%
обл.,
%
осадки,
мм/ч
давл.,
гПа
погр.,
м
7 августа, вс
вс700:00+19ю310825 0.1 1016221
03:00+17ю379567 0.8 1015154
06:00+17з3896100 0.5 1016279
09:00+16сз3698100 3.5 1017463
12:00+15с3698100 5.4 1019378
15:00+14с3698100 10.7 1019361
18:00+14сз1498100 2.9 1020299
21:00+13ссз1197100 3.0 102113
8 августа, пн
пн800:00+11ссз11965 0.0 102213
03:00+10с22956 0.0 102220
06:00+10ссв11933 0.0 102422
09:00+15ссв237463 0.0 1023335
12:00+20св2246100 0.0 10231407
15:00+22св223972 0.0 10221796
18:00+21св125351 0.0 1022169
21:00+14ссв11685 0.0 102211
9 августа, вт
вт900:00+12св227925 0.0 102315
03:00+11св1174100 0.0 102313
06:00+11с2272100 0.0 102346
09:00+17с2458100 0.0 1022336
12:00+21ссв33445 0.0 10221793
15:00+23с223781 0.0 10212440
18:00+17ссз4964100 0.0 1022363
21:00+15с2773100 0.0 1022250
10 августа, ср
ср1000:00+13ссз258552 0.0 1022145
03:00+12ссз389853 0.7 1022239
06:00+12ссз399850 1.0 1022377
09:00+14с478565 1.5 1023498
12:00+14ссз3785100 0.1 1023461
15:00+15сз377710 0.1 1022508
18:00+19ссз35605 0.0 10221100
21:00+13сз23887 0.1 102362
11 августа, чт
чт1100:00+13зсз248139 0.0 102389
03:00+11зсз228312 0.0 102430
06:00+12сз24845 0.0 102576
09:00+18сз24565 0.0 1025431
12:00+22зсз34435 0.0 10251755
15:00+23зсз34385 0.0 10232088
18:00+22зсз24505 0.0 1023285
21:00+15з226770 0.0 102333